[[{"header":{"parameterUnit":"m.s-1","parameterCategory":1,"la1":30.2991,"la2":30.254,"lo1":-89.0895,"lo2":-89.0444,"dy":0.0017,"dx":0.0017,"nx":28,"ny":28,"refTime":"2024-04-03T03:00:00:Z","depth":0,"parameterNumber":2,"parameterNumberName":"U-component_of_WINDS"},"data":[0,0,0,0,0,0,0,0,0,0,0,0,0,0,0,0,0,0,0,0,0,0,0,0,0,0,0,0,0,0,0,0,0,0,0,0,0,0,0,0,0,0,0,0,0,0,0,0,0,0,0,0,0,0,0,0,0,0,1.7058,1.7057,0,1.6942,1.6941,1.6939,1.6855,1.6855,1.6854,1.6853,1.6734,1.6732,1.6729,0,0,0,0,0,0,0,0,0,0,0,0,0,1.7209,1.7206,1.7059,1.7057,1.7056,1.6942,1.6941,1.6939,1.6855,1.6855,1.6854,1.6853,1.6735,1.6732,1.6729,0,0,0,0,0,0,0,0,0,0,0,0,0,1.7123,1.7206,1.7059,1.7,1.6994,1.6943,1.6941,1.6939,1.6856,1.6855,1.6853,1.6852,1.6736,1.6732,1.6728,1.6726,0,0,1.6717,1.6715,0,0,0,0,0,0,0,0,1.7128,1.7118,1.701,1.7004,1.6997,1.6912,1.695,1.6867,1.6856,1.6908,1.6853,1.6852,1.6794,1.6786,1.6766,1.6721,1.6715,1.6717,1.6714,1.6713,1.6712,0,0,0,0,0,0,0,1.7134,1.7122,1.7012,1.7009,1.7001,1.698,1.6967,1.6934,1.6858,1.6903,1.6897,1.6884,1.679,1.677,1.6763,1.6714,1.6717,1.6713,1.6711,1.6709,1.6661,1.6662,0,0,0,0,0,0,1.7149,1.7128,1.7016,1.7009,1.7061,1.6978,1.6963,1.694,1.6859,1.6845,1.6885,1.6881,1.6777,1.6767,1.6758,1.675,1.6713,1.6709,1.6707,1.666,1.6661,1.6662,0,0,0,0,0,0,1.7153,1.714,1.7021,1.7067,1.705,1.6977,1.6952,1.6939,1.6918,1.6845,1.6831,1.6878,1.6776,1.6763,1.6735,1.6745,1.6707,1.6704,1.6659,1.666,1.6662,1.6734,0,0,0,0,0,0,1.7157,1.7142,1.714,1.7067,1.7048,1.7,1.6952,1.6937,1.6912,1.6905,1.6835,1.6822,1.6774,1.6741,1.6731,1.6739,1.6701,1.6658,1.6659,1.6661,1.6731,1.6738,1.6744,0,0,0,0,0,1.7163,1.7165,1.714,1.7127,1.7044,1.7,1.6989,1.6934,1.6913,1.6911,1.6864,1.6824,1.6745,1.6739,1.6727,1.6734,1.6657,1.6659,1.6661,1.6728,1.6737,1.6744,0,0,0,0,0,0,1.7241,1.7154,1.7126,1.7105,1.7061,1.6986,1.6982,1.6945,1.6906,1.6901,1.6834,1.6819,1.6797,1.6762,1.6757,1.6727,1.6696,1.6696,1.6751,1.6759,1.6765,1.6774,1.6698,0,0,0,0,0,1.7256,1.7227,1.7153,1.7141,1.7121,1.7056,1.7034,1.6995,1.6947,1.6928,1.6879,1.6833,1.6798,1.6777,1.674,1.6725,1.6709,1.6724,1.6731,1.6737,1.6738,1.6728,1.6734,1.6669,1.6669,1.6669,0,0,1.7285,1.7235,1.7221,1.7156,1.7117,1.709,1.704,1.7013,1.6992,1.6924,1.6894,1.6856,1.6801,1.678,1.6768,1.675,1.6752,1.674,1.6745,1.6743,1.6731,1.6737,1.6742,1.6671,1.6671,1.667,0,0,1.7326,1.7285,1.727,1.7233,1.7175,1.7131,1.7128,1.706,1.7032,1.7001,1.695,1.6924,1.6865,1.6827,1.6801,1.6829,1.6791,1.6819,1.6854,1.6845,1.685,1.6854,1.6864,1.6869,1.682,1.682,1.682,0,1.737,1.7326,1.7268,1.7244,1.7217,1.7154,1.7139,1.7106,1.7039,1.7022,1.7003,1.6928,1.6887,1.6856,1.6862,1.6843,1.6837,1.6826,1.6854,1.6858,1.6861,1.687,1.6873,1.6823,1.6823,1.6823,1.6822,0,1.7384,1.7355,1.735,1.7288,1.726,1.7241,1.718,1.7159,1.7123,1.7082,1.7051,1.6999,1.6951,1.6941,1.6905,1.6905,1.6896,1.6867,1.6834,1.6872,1.6879,1.6882,1.6829,1.6828,1.6826,1.6825,0,0,1.7469,1.7375,1.7375,1.7346,1.7278,1.7254,1.7232,1.7186,1.7169,1.7126,1.7106,1.7058,1.703,1.7,1.696,1.6952,1.6978,1.6924,1.6921,1.6935,1.6974,1.6997,1.7002,1.6952,1.6953,1.6953,1.6979,0,1.7499,1.7457,1.7404,1.7379,1.7351,1.7292,1.7273,1.723,1.7191,1.7162,1.7118,1.7085,1.7052,1.7033,1.7023,1.6977,1.6984,1.6974,1.6933,1.6932,1.6949,1.7005,1.7028,1.7055,1.6981,1.6982,1.6982,0,1.7528,1.7488,1.7461,1.7396,1.7382,1.7366,1.732,1.7293,1.7242,1.7214,1.7182,1.7138,1.7113,1.7084,1.7047,1.7042,1.7022,1.6997,1.6996,1.699,1.6959,1.7001,1.7063,1.7067,1.6986,1.6985,1.6985,0,1.7593,1.7532,1.7508,1.7486,1.7409,1.7399,1.7367,1.7316,1.7291,1.7251,1.7234,1.7191,1.7168,1.7135,1.7082,1.7066,1.7051,1.7018,1.7027,1.7029,1.7027,1.7028,1.7087,1.7015,1.7015,1.7015,1.7014,0,1.7632,1.7618,1.7537,1.7522,1.7505,1.7444,1.7428,1.7391,1.7346,1.7323,1.7269,1.7248,1.7179,1.715,1.7108,1.7085,1.7075,1.7051,1.704,1.7056,1.7059,1.7042,1.7039,1.7015,1.7015,1.7015,1.7015,0,1.7701,1.7646,1.7616,1.7547,1.7529,1.7519,1.746,1.7443,1.7402,1.7373,1.7363,1.7298,1.7262,1.7205,1.7152,1.7124,1.7107,1.7089,1.7124,1.7118,1.713,1.713,1.718,1.7184,1.7111,1.7111,1.7112,0,1.7729,1.7717,1.7646,1.7627,1.7597,1.7567,1.7542,1.7482,1.7458,1.7401,1.7391,1.7351,1.7315,1.726,1.7208,1.7167,1.7147,1.7168,1.7141,1.7157,1.7148,1.7149,1.7147,1.7174,1.7175,1.7176,1.7177,0,1.7785,1.7759,1.7725,1.7682,1.7654,1.7617,1.7578,1.7565,1.7497,1.7473,1.7435,1.7408,1.7354,1.7315,1.7267,1.7233,1.7194,1.7186,1.7186,1.7202,1.7223,1.7212,1.7141,1.7185,1.7184,1.7184,1.7183,1.7183,1.7834,1.7821,1.7769,1.7734,1.7698,1.7663,1.7644,1.76,1.7568,1.752,1.7486,1.7451,1.7401,1.7333,1.7302,1.7273,1.7256,1.7256,1.7256,1.7257,1.7263,1.7228,1.7264,1.7264,1.7263,1.7263,1.7263,0,1.7887,1.7851,1.7819,1.7766,1.7738,1.7704,1.7659,1.7638,1.7608,1.7565,1.7531,1.7488,1.745,1.7395,1.7353,1.7341,1.7321,1.7331,1.7332,1.7325,1.728,1.7285,1.7348,1.7348,1.7348,1.7348,1.7348,1.7348,1.7911,1.7887,1.7855,1.7813,1.7777,1.7742,1.7719,1.7686,1.7652,1.7607,1.7575,1.7539,1.7492,1.7445,1.7409,1.7394,1.7381,1.7396,1.7376,1.7335,1.7328,1.732,1.7324,1.7394,1.7394,1.7422,1.7422,1.7422]},{"header":{"parameterUnit":"m.s-1","parameterCategory":1,"la1":30.2991,"la2":30.254,"lo1":-89.0895,"lo2":-89.0444,"dy":0.0017,"dx":0.0017,"nx":28,"ny":28,"refTime":"2024-04-03T03:00:00:Z","depth":0,"parameterNumber":3,"parameterNumberName":"V-component_of_WINDS"},"data":[0,0,0,0,0,0,0,0,0,0,0,0,0,0,0,0,0,0,0,0,0,0,0,0,0,0,0,0,0,0,0,0,0,0,0,0,0,0,0,0,0,0,0,0,0,0,0,0,0,0,0,0,0,0,0,0,0,0,4.8916,4.8919,0,4.9182,4.9185,4.9188,4.9241,4.9239,4.9237,4.9235,4.9506,4.9515,4.9524,0,0,0,0,0,0,0,0,0,0,0,0,0,4.8453,4.8461,4.8916,4.8919,4.8923,4.9181,4.9185,4.9189,4.9241,4.9239,4.9236,4.9234,4.9503,4.9514,4.9525,0,0,0,0,0,0,0,0,0,0,0,0,0,4.868,4.8464,4.8915,4.898,4.8989,4.9181,4.9185,4.919,4.9242,4.9239,4.9236,4.9233,4.95,4.9513,4.9527,4.9673,0,0,4.9568,4.9574,0,0,0,0,0,0,0,0,4.8667,4.8697,4.8967,4.8976,4.8986,4.9175,4.9121,4.9352,4.9243,4.9146,4.9235,4.9231,4.9399,4.942,4.9477,4.9686,4.9697,4.957,4.9578,4.9584,4.9588,0,0,0,0,0,0,0,4.8651,4.8686,4.9021,4.8971,4.8983,4.8995,4.9024,4.9165,4.9286,4.9154,4.9158,4.9189,4.9403,4.9464,4.9484,4.9701,4.9569,4.9581,4.959,4.9595,5.0044,5.0047,0,0,0,0,0,0,4.8624,4.8672,4.9013,4.9029,4.8816,4.9006,4.9039,4.9117,4.9285,4.9307,4.9191,4.9191,4.9442,4.9468,4.9493,4.9677,4.9584,4.9597,4.9604,5.004,5.0045,5.0048,0,0,0,0,0,0,4.8614,4.8654,4.9002,4.8852,4.8897,4.9018,4.9106,4.9124,4.9185,4.9313,4.9335,4.9231,4.944,4.9474,4.9628,4.9687,4.9603,4.9615,5.0036,5.0041,5.0047,5.0044,0,0,0,0,0,0,4.86,4.865,4.8707,4.8853,4.8905,4.9133,4.9109,4.9132,4.9209,4.921,4.9356,4.9378,4.944,4.9607,4.9642,4.9704,4.9626,5.0031,5.0038,5.0045,5.0039,5.0048,5.0056,0,0,0,0,0,4.8584,4.8695,4.871,4.8751,4.8979,4.9136,4.9166,4.9236,4.9213,4.9272,4.9354,4.9373,4.9674,4.9623,4.9662,4.9729,5.0028,5.0036,5.0044,5.0035,5.0046,5.0056,0,0,0,0,0,0,4.8553,4.8716,4.8734,4.8896,4.9002,4.9144,4.922,4.9246,4.936,4.9357,4.9439,4.9471,4.962,4.969,4.9629,4.988,4.985,4.9866,4.9829,4.9841,4.985,4.983,4.9637,0,0,0,0,0,4.8565,4.8679,4.8815,4.8945,4.8997,4.9099,4.917,4.9215,4.9328,4.9373,4.9467,4.9575,4.9694,4.9771,4.9888,5.0049,5.0082,5.0114,5.0123,5.0129,5.0143,5.0234,5.025,5.0076,5.0076,5.0076,0,0,4.8592,4.8695,4.8762,4.8942,4.9029,4.9145,4.9137,4.926,4.9347,4.9392,4.9543,4.9615,4.9742,4.99,4.9974,4.9962,5.0198,5.014,5.0144,5.0155,5.0244,5.026,5.0275,5.0081,5.008,5.0079,0,0,4.87,4.8788,4.8907,4.8995,4.9127,4.9194,4.9222,4.9362,4.9412,4.9565,4.9601,4.9705,4.9909,4.9998,5.0069,5.021,5.0232,5.0245,5.0291,5.0379,5.0393,5.0405,5.0456,5.0474,5.0258,5.0258,5.0258,0,4.8716,4.8893,4.8965,4.9087,4.9165,4.9211,4.9331,4.9413,4.9576,4.9629,4.9613,4.987,4.9958,5.0138,5.0172,5.0228,5.0264,5.023,5.0385,5.0398,5.0411,5.0461,5.048,5.0259,5.0259,5.0259,5.0259,0,4.8906,4.9028,4.9108,4.9265,4.9352,4.9473,4.9563,4.9642,4.9679,4.9747,4.9903,5.001,5.015,5.0195,5.0232,5.0381,5.037,5.0368,5.034,5.0427,5.0476,5.0495,5.026,5.026,5.026,5.026,0,0,4.9004,4.9199,4.9227,4.9299,4.9448,4.9544,4.9666,4.9803,4.987,4.998,5.0085,5.0256,5.0256,5.0337,5.0385,5.0461,5.0567,5.0451,5.0455,5.047,5.0738,5.0739,5.076,5.0582,5.0585,5.0589,5.0728,0,4.9131,4.9351,4.942,4.9604,4.9718,4.9763,4.9869,4.9972,5.0039,5.0145,5.0218,5.0339,5.0329,5.0378,5.0456,5.0537,5.0622,5.0528,5.0681,5.0685,5.0649,5.0785,5.0787,5.0913,5.0747,5.075,5.0752,0,4.9309,4.9423,4.9619,4.9754,4.9804,4.9899,5.003,5.013,5.0247,5.0291,5.0381,5.0422,5.0551,5.0514,5.0694,5.0628,5.0694,5.0744,5.075,5.0769,5.0725,5.0808,5.0955,5.0974,5.0783,5.078,5.0778,0,4.9361,4.9564,4.9708,4.9768,4.9929,4.9994,5.0064,5.0178,5.0256,5.037,5.0422,5.0549,5.0619,5.0716,5.079,5.0756,5.0963,5.0932,5.1004,5.1002,5.1047,5.1043,5.1208,5.1087,5.1086,5.1086,5.1085,0,4.9497,4.9615,4.9734,4.9823,4.9957,5.0033,5.0164,5.0236,5.0337,5.044,5.0485,5.0581,5.0673,5.078,5.0839,5.0979,5.101,5.1049,5.1063,5.1046,5.1041,5.1092,5.1086,5.1091,5.109,5.1089,5.1088,0,4.958,4.9664,4.9824,4.9962,5.0,5.0093,5.0212,5.0299,5.0367,5.0497,5.0532,5.0639,5.0769,5.0852,5.1016,5.1055,5.1209,5.122,5.117,5.1177,5.1245,5.1238,5.1449,5.1481,5.1336,5.1337,5.1338,0,4.9661,4.9754,4.9902,4.9975,5.0046,5.0162,5.0241,5.032,5.0401,5.0541,5.0612,5.0744,5.0854,5.1059,5.1151,5.1277,5.1293,5.1358,5.1312,5.1292,5.1296,5.129,5.13,5.1366,5.1367,5.1368,5.1369,0,4.9798,4.9835,4.9949,5.0077,5.0171,5.0276,5.038,5.0437,5.0533,5.0622,5.0755,5.084,5.1008,5.1139,5.1274,5.1345,5.1374,5.1382,5.1406,5.139,5.1357,5.1377,5.1192,5.1377,5.1376,5.1376,5.1375,5.1375,4.9884,4.9969,5.0087,5.0212,5.0298,5.0395,5.0485,5.0564,5.0676,5.082,5.0858,5.0997,5.1112,5.1296,5.137,5.1479,5.1472,5.1505,5.1514,5.1522,5.1523,5.1338,5.1504,5.1504,5.1504,5.1504,5.1503,0,5.0024,5.0102,5.0216,5.0362,5.046,5.0477,5.0594,5.0675,5.0797,5.0901,5.1009,5.1162,5.1289,5.1391,5.1522,5.159,5.1606,5.1622,5.1619,5.1635,5.1522,5.149,5.1607,5.1607,5.1607,5.1606,5.1606,5.1606,5.0109,5.0253,5.0304,5.0491,5.0569,5.0706,5.0771,5.086,5.0944,5.1113,5.1219,5.1284,5.1389,5.1527,5.1644,5.1671,5.1718,5.1731,5.1761,5.1654,5.1643,5.1632,5.1602,5.174,5.174,5.1865,5.1866,5.1866]}]]